Location: Crab Orchard
(37.7292°N, 88.8042°W)
Time: 06:14:06
(UTC+00:00)

Okean 1-7 - Pass Details

Date: 08 December 2019
Orbit: 591 x 619 km, 82.5° (Epoch: 19 January)

Event Time Altitude Azimuth Distance (km) Brightness Sun altitude
Rises 23:37:10 0° 165° (SSE) 2,836 6.5 -11.8°
Reaches altitude 10° 23:39:29 10° 156° (SSE) 1,943 5.6 -12.3°
Maximum altitude 23:43:23 35° 91° (E) 992 3.6 -13.0°
Enters shadow 23:46:56 12° 28° (NNE) 1,821 5.0 -13.6°
